Flag for United Kingdom Weather past 2 weeks in Crawley, England, United Kingdom

Now
61 °F

Passing clouds.


Feels Like: 61 °F
Forecast: 46 / 57 °F
Wind: 14 mph from West

Location: London / Gatwick Airport

Current Time: May 28, 2015 at 12:28:13 PM

Latest Report: May 28, 2015 at 11:50 AM


Visibility: N/A

Pressure: 29.98 "Hg

Humidity: 45%

Dew point: 39 °F

Location of CrawleyLocation

Historic Weather in Crawley — Graph

°F

Crawley temperature yesterday

Maximum temperature yesterday: 66 °F (at 2:20 PM)
Minimum temperature yesterday: 41 °F (at 5:20 AM)
Average temperature yesterday: 55 °F

Past Weeks' High & Low Weather Summary

 TemperatureHumidityPressure
High68 °F (May 24, 1:50 PM)100% (May 14, 2:20 PM)30.36 "Hg (May 14, 2:20 PM)
Low36 °F (May 21, 4:20 AM)35% (May 13, 3:50 PM)29.62 "Hg (May 18, 1:50 PM)
Average54 °F74%30.10 "Hg
* Reported May 13 11:20 AM — May 28 11:20 AM, Crawley, Weather by CustomWeather, © 2015

Note: Actual official high and low records may vary slightly from our data, if they occured in-between our weather recording intervals... More about our weather records

Advertising

Crawley weather history for previous 24 hours

 ConditionsComfort  
Time TempWeatherWind HumidityBarometerVisibility
11:20 AM
Thu, May 28
59 °FSunny.13 mph48%29.98 "Hg10 mi
10:50 AM59 °FScattered clouds.15 mph48%29.98 "HgN/A
10:20 AM59 °FPassing clouds.15 mph48%29.98 "HgN/A
9:50 AM59 °FPassing clouds.15 mph48%29.98 "HgN/A
9:20 AM59 °FPassing clouds.14 mph51%29.98 "HgN/A
8:50 AM57 °FScattered clouds.14 mph55%29.98 "HgN/A
8:20 AM57 °FPassing clouds.15 mph63%29.98 "HgN/A
7:50 AM55 °FPassing clouds.15 mph67%29.98 "HgN/A
7:20 AM55 °FPassing clouds.14 mph77%29.95 "HgN/A
6:50 AM54 °FPassing clouds.12 mph82%29.95 "HgN/A
6:20 AM54 °FScattered clouds.10 mph82%29.95 "HgN/A
5:50 AM52 °FPassing clouds.8 mph88%29.95 "HgN/A
5:20 AM52 °FPassing clouds.9 mph82%29.95 "HgN/A
4:50 AM54 °FPartly cloudy.8 mph77%29.95 "HgN/A
4:20 AM52 °FClear.9 mph77%29.95 "Hg10 mi
3:50 AM52 °FPassing clouds.9 mph77%29.95 "HgN/A
3:20 AM52 °FPartly cloudy.8 mph77%29.98 "HgN/A
2:50 AM54 °FPassing clouds.7 mph77%29.98 "HgN/A
2:20 AM54 °FOvercast.6 mph77%29.98 "HgN/A
1:50 AM52 °FClear.5 mph82%29.98 "Hg10 mi
1:20 AM54 °FClear.6 mph82%30.01 "Hg10 mi
12:50 AM54 °FClear.7 mph82%30.01 "Hg10 mi
12:20 AM54 °FClear.7 mph88%30.01 "Hg10 mi
11:50 PM
Wed, May 27
54 °FClear.5 mph88%30.01 "Hg10 mi
11:20 PM54 °FPassing clouds.6 mph88%30.01 "HgN/A
10:50 PM54 °FClear.9 mph82%30.04 "Hg10 mi
10:20 PM54 °FClear.9 mph77%30.04 "Hg10 mi
9:50 PM55 °FSunny.10 mph72%30.04 "Hg10 mi
9:20 PM55 °FSprinkles. Clear.8 mph72%30.04 "HgN/A
8:50 PM55 °FSunny.7 mph72%30.07 "Hg10 mi
8:20 PM57 °FSunny.8 mph72%30.07 "Hg10 mi
7:50 PM57 °FPassing clouds.8 mph72%30.07 "HgN/A
7:20 PM57 °FSunny.10 mph72%30.09 "Hg10 mi
6:50 PM59 °FSunny.10 mph68%30.09 "Hg10 mi
6:20 PM59 °FSunny.12 mph68%30.09 "Hg10 mi
5:50 PM59 °FPassing clouds.12 mph63%30.12 "HgN/A
5:20 PM61 °FSunny.14 mph63%30.12 "Hg10 mi
4:50 PM61 °FSunny.13 mph63%30.12 "Hg10 mi
4:20 PM63 °FSunny.13 mph59%30.15 "Hg10 mi
3:50 PM64 °FSunny.14 mph56%30.15 "Hg10 mi
3:20 PM66 °FPassing clouds.10 mph52%30.15 "HgN/A
2:50 PM66 °FPassing clouds.9 mph56%30.18 "HgN/A
2:20 PM66 °FSunny.12 mph49%30.18 "Hg10 mi
1:50 PM64 °FPassing clouds.8 mph52%30.18 "HgN/A
1:20 PM64 °FPassing clouds.10 mph56%30.21 "HgN/A
12:50 PM63 °FPassing clouds.9 mph56%30.21 "HgN/A
12:20 PM63 °FPassing clouds.9 mph52%30.24 "HgN/A
Weather by CustomWeather, © 2015

See weather overviewHow to use our weather pages